Temperature
14 14 14 14 14 14 14 13 13 13 13 13 13 13 13 13 13 13 13 13 12 12 12 12 12 12 12 12 12 12 12 12 12 12 12 12 12 11 12 11 11 11 11
14 14 13 14 13 13 13 13 13 13 13 13 13 13 13 13 12 12 12 12 12 12 12 12 12 12 12 12 12 12 12 12 11 12 11 12 11 11 11 11 11 11 11
13 13 13 13 13 13 13 13 13 13 13 12 13 12 12 12 12 12 12 12 12 12 12 12 12 12 12 12 12 11 11 11 11 11 11 11 11 11 11 11 11 11 11
13 13 13 13 13 13 13 13 12 12 12 12 12 12 12 12 12 12 11 11 11 11 11 11 11 11 11 11 11 11 11 11 11 11 11 11 11 11 11 11 10 11 11
12 12 12 12 12 12 12 12 12 12 12 12 12 12 12 11 11 11 11 11 11 11 11 11 11 11 11 11 11 11 11 11 10 10 11 10 10 10 10 10 10 10 10
12 12 12 12 12 12 12 12 12 11 11 11 11 11 11 11 11 11 11 11 10 10 10 10 11 11 11 11 11 11 11 10 10 10 10 10 10 10 10 10 10 10 10
11 11 11 11 11 11 11 11 11 11 11 11 11 11 11 11 11 11 11 10 10 10 10 10 10 10 10 10 10 11 10 10 10 10 10 10 10 10 10 10 9 10 10
11 11 11 11 11 11 11 11 11 11 10 10 10 10 10 10 11 11 10 10 10 10 10 10 10 10 10 10 10 10 10 10 10 10 10 10 10 10 9 9 9 9 9
10 10 10 10 10 10 10 10 10 10 10 10 10 10 9 10 10 10 10 10 9 9 9 9 9 9 9 10 9 9 9 9 9 10 9 9 10 10 9 9 9 9 9
10 10 10 10 10 10 10 10 10 10 10 10 9 9 9 9 10 10 10 9 9 9 9 9 9 9 9 9 9 9 9 9 9 9 9 9 9 9 9 9 9 9 9
10 9 9 9 9 9 9 9 9 9 9 9 9 9 9 9 9 9 9 9 9 9 9 9 9 9 9 9 9 8 8 8 8 8 8 8 8 8 8 8 8 8 8
9 9 9 9 9 9 9 8 8 8 8 8 8 8 8 8 8 9 9 8 8 8 8 8 8 8 8 8 8 8 8 8 8 8 8 8 8 8 8 8 8 8 8
9 9 8 8 8 8 8 8 8 8 8 8 8 8 8 8 8 8 8 8 8 8 8 8 8 8 8 8 7 7 7 7 7 7 7 7 7 7 7 7 7 7 7
8 8 8 8 8 8 8 8 8 7 7 7 7 7 7 7 7 7 7 7 7 7 7 7 8 8 7 7 7 7 7 7 6 6 6 6 7 7 7 7 7 7 7
7 8 8 8 8 8 7 7 7 7 7 7 7 7 7 7 7 7 7 7 7 7 7 7 7 7 7 7 6 6 6 6 6 6 6 6 6 6 6 6 6 6 6
7 7 7 7 7 7 7 7 7 7 7 7 7 7 6 6 6 6 6 7 7 7 7 6 6 6 6 6 6 6 6 6 6 6 6 5 5 6 6 6 6 6 6
6 6 6 6 6 6 6 6 6 6 6 6 6 6 6 6 6 6 6 6 6 6 6 6 6 5 5 5 5 5 5 5 5 5 5 5 5 5 5 5 5 5 5
6 6 6 6 6 6 6 6 6 6 6 6 6 6 6 6 6 6 6 5 5 5 5 5 5 5 5 5 5 5 5 5 5 5 5 4 4 4 4 5 5 5 5
5 5 5 5 5 5 5 5 5 5 5 5 5 5 5 5 5 5 5 5 5 5 5 5 5 5 5 4 4 4 4 4 4 4 4 4 4 4 4 4 4 4 4
5 5 5 5 5 5 4 5 4 4 4 4 4 4 4 4 4 4 4 4 4 4 4 4 4 4 4 4 4 4 4 4 3 3 3 3 3 3 3 4 4 4 4
4 4 4 4 4 4 4 4 4 4 4 4 4 4 4 4 4 4 4 4 4 4 4 4 4 4 4 4 4 3 3 3 3 3 3 3 3 3 3 3 3 3 3
4 4 4 4 4 4 4 4 3 3 3 3 3 3 3 3 3 3 3 3 3 3 3 3 3 3 3 3 3 3 3 3 3 3 3 3 3 3 3 3 3 3 3
3 3 3 3 3 3 3 3 3 3 3 3 3 3 3 3 3 3 3 3 3 3 3 3 3 3 3 3 3 3 3 3 3 3 3 3 3 3 2 3 3 3 2
3 3 3 3 3 3 2 3 3 2 2 2 2 2 2 2 2 2 2 2 2 2 2 2 2 2 3 3 3 3 3 3 3 3 3 3 3 2 2 2 2 2 2
2 2 2 2 2 2 2 2 2 2 2 2 2 2 2 2 2 2 2 2 2 2 2 2 2 2 2 2 2 2 2 3 2 2 3 3 2 2 2 2 2 2 2
2 2 2 2 2 2 2 2 2 2 1 1 1 1 1 1 1 2 2 2 2 2 2 2 2 2 2 2 2 2 2 2 2 2 2 2 2 2 2 2 1 1 1
Wind_Speed
3 3 2 3 3 4 4 4 4 3 3 4 4 4 4 4 4 3 4 4 5 4 4 5 5 5 4 4 4 5 5 5 5 4 3 2 3 3 3 3 3 3 3
3 3 3 3 3 4 4 4 4 4 4 4 4 5 5 4 4 4 5 4 5 5 5 5 5 4 5 5 5 6 5 6 6 6 3 3 4 3 3 3 3 3 3
3 4 4 4 4 4 4 5 5 5 5 5 5 5 5 5 5 5 5 5 5 6 5 6 6 5 6 5 6 6 5 5 5 6 5 3 3 3 3 3 4 3 4
4 4 5 5 5 5 5 5 5 6 6 5 5 6 6 6 5 5 6 6 6 6 6 6 6 6 6 6 6 6 6 6 5 5 5 4 3 3 3 4 3 3 3
4 4 5 5 5 5 5 5 5 6 6 6 6 6 6 6 5 5 6 7 7 7 6 6 7 6 6 6 5 6 6 6 5 6 5 4 4 3 4 4 4 4 4
4 5 4 5 5 5 6 6 6 6 6 6 6 7 7 6 4 5 7 7 8 8 7 7 7 7 7 7 7 7 7 7 7 6 6 6 6 5 4 4 5 4 4
4 5 5 5 5 5 6 6 6 7 6 6 7 7 8 7 5 6 8 8 8 8 8 8 6 6 7 7 8 8 9 9 8 8 8 8 7 5 5 6 6 6 5
5 5 5 5 6 5 6 6 7 6 6 6 7 8 8 7 6 7 8 9 9 9 9 9 8 8 7 7 7 7 8 8 8 8 8 8 6 5 6 6 6 6 5
5 5 5 5 6 6 6 6 6 6 6 7 7 8 8 7 6 7 8 8 8 9 9 9 9 9 5 5 7 8 7 6 5 5 5 4 3 3 4 5 5 5 5
5 5 5 5 5 6 6 6 5 5 6 6 6 7 8 8 6 6 8 7 8 8 8 8 8 8 6 6 8 8 8 6 5 5 5 5 6 6 7 7 6 6 5
5 5 5 5 5 5 5 5 5 5 5 5 6 6 7 7 6 6 7 7 7 7 7 6 6 6 7 7 8 7 7 6 6 6 5 5 5 5 6 6 6 6 6
5 5 5 5 5 4 5 5 5 5 5 5 6 6 5 5 5 5 5 7 8 7 7 6 5 5 6 7 7 5 5 4 4 4 4 4 4 5 5 5 6 6 6
5 5 5 5 5 5 5 5 5 5 5 5 5 5 5 5 4 4 5 6 6 6 6 5 5 5 7 7 7 6 6 5 4 5 5 4 4 4 4 3 4 4 4
5 5 5 5 5 5 5 4 4 5 5 5 5 5 5 5 5 4 4 4 5 5 5 4 5 5 6 5 5 5 5 4 4 5 4 4 3 3 3 3 4 3 3
5 5 5 5 6 5 5 4 5 5 5 5 5 5 6 6 5 5 5 5 5 5 5 4 3 3 4 4 4 4 4 4 4 4 4 3 3 3 3 3 3 4 4
5 5 5 5 5 4 4 4 3 4 4 5 6 6 5 5 5 5 6 6 5 5 5 4 4 4 4 4 4 4 4 4 4 4 3 3 3 3 3 3 4 4 4
6 6 5 5 4 4 4 4 4 3 2 3 4 4 5 4 4 5 5 4 4 5 4 4 5 5 5 4 4 5 4 4 4 4 3 3 3 3 3 3 4 4 4
7 6 5 5 4 4 4 4 4 4 4 4 3 2 3 3 4 4 4 3 3 3 4 4 5 5 5 4 4 4 4 4 4 4 4 4 4 4 4 4 4 4 4
6 5 5 5 4 4 4 4 4 4 4 4 4 3 2 2 3 4 4 4 4 4 4 4 4 4 4 4 4 4 4 4 4 4 4 4 4 4 4 4 4 4 4
6 5 5 5 5 4 4 4 4 4 4 4 4 4 3 3 3 3 3 4 4 4 4 4 4 4 4 4 4 4 4 4 5 5 5 4 4 4 5 5 4 5 4
5 5 5 5 4 4 4 4 4 4 4 4 5 4 4 4 4 5 4 4 4 4 3 3 3 3 4 4 4 5 5 4 4 4 4 4 4 4 4 4 5 5 4
5 4 4 4 4 4 4 4 4 4 4 4 4 4 4 4 4 4 4 4 3 3 3 3 3 3 3 3 4 4 4 4 4 4 4 4 4 5 5 4 4 4 4
4 4 4 4 4 4 4 4 4 4 4 4 4 3 3 3 4 4 4 3 3 3 3 3 3 3 3 3 4 4 5 5 5 5 5 5 5 5 5 5 6 5 5
4 4 4 4 4 4 4 4 4 4 4 4 4 4 3 3 4 4 4 3 3 3 3 3 3 3 4 3 3 4 4 4 5 5 6 6 6 5 5 6 6 6 6
4 4 4 4 4 4 4 4 4 4 4 4 4 4 4 4 4 4 3 3 4 4 4 4 3 4 4 5 4 4 3 4 5 5 5 5 6 6 6 6 5 6 5
4 5 4 4 4 4 4 4 4 4 4 4 4 4 4 4 4 4 4 4 4 4 4 3 4 4 5 4 4 4 3 4 5 6 5 5 6 5 6 5 6 5 5
Wind_Direction
229 236 239 241 249 241 239 244 250 254 247 252 252 242 237 237 236 233 241 246 249 250 245 247 248 251 248 244 244 243 245 250 255 262 252 248 244 243 222 237 221 213 188
236 239 240 244 248 247 244 245 248 251 252 252 252 245 239 239 240 240 241 244 250 256 256 254 250 243 248 249 242 240 241 244 250 259 250 246 249 248 241 238 231 226 217
240 241 241 244 251 251 249 246 247 248 250 249 249 249 244 242 243 245 246 246 249 254 256 256 255 247 244 245 244 245 246 245 245 252 253 246 245 241 242 241 235 233 229
247 248 249 250 252 252 251 249 247 247 248 248 248 250 247 243 242 246 249 251 253 254 254 254 255 254 253 249 244 246 247 246 244 248 247 240 233 234 235 236 234 227 233
258 260 259 260 259 259 254 250 247 245 247 249 250 250 249 246 247 252 254 255 256 255 254 253 255 259 272 263 253 249 249 248 245 243 243 243 232 224 233 234 240 239 234
269 270 271 265 262 261 258 253 249 246 245 248 251 250 249 248 244 252 259 258 258 257 258 257 256 249 254 253 256 261 259 254 251 244 242 241 242 235 233 235 237 237 242
280 277 273 268 263 262 262 257 250 247 246 245 249 251 253 251 232 238 247 257 259 260 261 261 259 254 247 251 245 239 242 247 254 255 250 249 248 242 234 236 238 240 251
292 284 277 269 263 264 262 260 254 250 247 248 251 252 256 254 234 237 242 250 257 257 257 259 259 257 248 251 253 250 247 240 238 243 251 256 254 246 237 240 241 242 250
302 297 285 274 269 265 264 263 261 256 253 253 255 256 257 254 236 235 243 255 256 259 259 258 259 256 242 242 248 250 251 248 231 245 270 266 271 253 233 228 225 225 236
306 302 298 285 272 265 263 264 264 259 258 259 258 257 260 263 251 241 249 256 256 258 258 256 253 254 250 232 242 245 246 249 245 237 240 229 226 213 210 224 225 228 232
304 302 300 296 283 272 270 267 264 263 263 263 264 264 266 269 261 246 247 254 258 258 257 255 253 231 236 229 241 244 249 254 248 241 236 234 226 220 215 223 228 233 231
302 300 301 300 295 283 277 273 269 265 264 265 265 267 273 274 276 260 246 255 266 262 259 258 254 232 231 228 233 240 244 245 243 238 234 235 232 228 225 222 225 230 239
298 301 303 300 297 287 279 274 274 269 265 268 270 273 279 281 278 267 252 249 260 263 265 264 255 233 226 225 223 223 221 228 233 235 235 241 245 239 228 222 227 229 234
296 298 296 294 294 290 281 272 264 263 262 265 273 277 281 279 278 277 278 273 260 262 266 253 233 228 230 237 228 219 224 231 233 235 239 239 240 234 225 215 216 212 220
296 298 296 293 291 288 276 270 263 263 266 266 272 274 277 279 289 302 288 281 279 276 276 265 254 237 227 229 226 224 223 220 224 233 236 236 233 230 232 222 216 215 220
298 300 299 297 295 292 286 283 279 260 269 272 269 267 276 283 284 279 281 283 280 269 259 246 243 235 229 222 221 223 223 220 224 232 230 230 233 235 238 226 217 216 219
293 296 295 294 293 291 288 283 289 299 274 259 259 261 270 276 272 266 269 275 267 248 240 240 238 234 231 226 224 224 226 226 224 227 227 229 230 231 229 228 226 219 219
294 293 291 288 286 286 286 285 283 283 293 303 306 284 266 265 266 264 257 258 262 247 249 247 239 234 228 227 226 225 226 226 224 226 227 230 231 228 230 231 230 230 222
295 295 295 293 290 288 288 289 290 289 289 296 303 308 298 277 268 262 247 251 256 256 257 258 247 236 229 225 223 224 224 223 223 224 226 227 230 228 229 231 232 230 232
299 298 293 288 288 288 290 290 292 292 291 290 290 295 302 299 288 276 268 268 261 260 260 257 251 239 229 222 217 216 219 220 222 225 227 229 230 230 232 232 234 228 225
299 297 290 286 285 285 286 286 288 287 287 289 292 303 300 282 276 277 278 278 271 266 263 260 255 243 229 217 214 217 218 220 222 224 224 227 228 228 231 229 230 228 226
300 301 303 302 296 293 294 292 290 290 291 292 296 302 297 285 281 277 279 281 281 277 270 264 258 252 234 221 218 217 218 221 225 229 229 226 225 222 222 223 223 221 223
299 300 303 304 301 297 290 289 288 289 294 295 293 296 298 296 295 292 289 292 290 281 270 262 261 259 254 237 225 222 224 226 228 228 229 223 217 217 217 218 220 223 224
305 300 300 302 300 294 292 290 289 290 293 295 295 295 295 294 294 298 296 290 293 293 287 274 266 265 266 256 243 236 236 236 237 232 230 222 217 218 217 217 219 221 224
313 309 304 303 299 294 292 290 288 287 291 297 299 300 300 297 295 295 297 295 290 287 281 274 268 266 263 256 250 246 244 234 236 242 232 222 217 216 217 220 220 223 225
308 305 302 301 299 295 292 290 290 292 292 296 299 298 297 296 296 296 294 294 291 287 280 266 263 267 269 259 254 256 248 232 227 233 234 222 215 214 215 219 220 220 220
Height
1526 1526 1527 1527 1527 1527 1527 1527 1527 1527 1527 1527 1527 1527 1527 1527 1527 1527 1526 1526 1526 1526 1526 1526 1525 1525 1525 1525 1526 1526 1526 1527 1526 1526 1525 1524 1524 1523 1523 1522 1522 1521 1521
1523 1523 1523 1524 1524 1524 1524 1524 1524 1524 1524 1523 1523 1523 1523 1523 1523 1523 1523 1523 1523 1523 1523 1523 1522 1522 1522 1522 1522 1522 1523 1523 1523 1522 1522 1521 1521 1521 1520 1520 1519 1519 1519
1519 1519 1520 1520 1520 1520 1520 1520 1520 1520 1520 1520 1520 1520 1520 1520 1520 1520 1520 1520 1520 1520 1519 1519 1519 1518 1518 1518 1518 1519 1519 1519 1519 1519 1519 1518 1518 1517 1517 1517 1517 1516 1517
1515 1516 1516 1516 1516 1516 1516 1516 1516 1516 1516 1516 1516 1516 1516 1516 1516 1516 1516 1516 1516 1516 1516 1515 1515 1515 1515 1515 1514 1515 1515 1515 1515 1515 1515 1515 1514 1514 1514 1514 1514 1514 1514
1512 1512 1512 1512 1512 1512 1512 1512 1512 1512 1512 1512 1512 1512 1512 1512 1512 1512 1512 1512 1512 1512 1511 1511 1511 1510 1510 1510 1510 1511 1511 1511 1511 1511 1511 1511 1511 1510 1510 1511 1511 1511 1511
1508 1507 1507 1507 1507 1507 1507 1507 1507 1507 1507 1507 1507 1507 1507 1507 1507 1507 1507 1507 1507 1507 1507 1507 1506 1506 1506 1506 1506 1506 1506 1507 1507 1507 1507 1507 1507 1507 1507 1507 1508 1508 1508
1504 1503 1503 1503 1503 1503 1503 1502 1502 1502 1502 1502 1502 1503 1503 1503 1503 1503 1503 1503 1503 1502 1502 1502 1502 1501 1501 1501 1501 1501 1501 1502 1502 1503 1503 1503 1503 1503 1503 1503 1504 1504 1504
1500 1499 1499 1499 1498 1498 1498 1498 1498 1498 1498 1497 1497 1498 1498 1497 1497 1498 1498 1498 1497 1497 1497 1497 1497 1496 1496 1496 1496 1496 1496 1497 1497 1497 1498 1498 1498 1499 1499 1499 1500 1500 1501
1497 1496 1495 1495 1494 1494 1493 1493 1493 1493 1492 1492 1492 1492 1492 1492 1492 1493 1493 1493 1492 1492 1492 1492 1491 1491 1491 1491 1491 1491 1491 1491 1492 1492 1493 1493 1493 1494 1494 1495 1495 1496 1496
1494 1492 1491 1491 1490 1489 1489 1489 1488 1488 1488 1487 1487 1487 1488 1487 1487 1487 1488 1487 1487 1487 1487 1486 1486 1486 1486 1486 1486 1486 1485 1486 1486 1487 1487 1488 1488 1488 1489 1490 1490 1491 1492
1490 1489 1488 1487 1486 1485 1485 1484 1484 1483 1483 1482 1482 1482 1482 1482 1482 1482 1482 1482 1481 1481 1481 1480 1480 1480 1480 1480 1481 1480 1480 1481 1481 1481 1482 1482 1483 1483 1484 1484 1485 1486 1487
1487 1486 1484 1483 1482 1481 1481 1480 1480 1479 1479 1478 1478 1477 1477 1477 1477 1476 1477 1477 1476 1476 1475 1474 1474 1474 1474 1474 1475 1475 1476 1476 1476 1476 1477 1477 1478 1478 1479 1479 1480 1481 1482
1484 1482 1481 1480 1478 1477 1477 1476 1475 1475 1474 1473 1473 1473 1472 1472 1472 1472 1471 1471 1471 1470 1469 1468 1468 1468 1468 1469 1469 1470 1470 1471 1471 1472 1472 1472 1473 1474 1475 1475 1475 1476 1477
1481 1479 1477 1476 1474 1473 1472 1471 1471 1470 1470 1469 1469 1468 1468 1468 1467 1467 1466 1466 1465 1464 1464 1463 1463 1463 1463 1463 1464 1464 1465 1465 1466 1467 1467 1468 1469 1469 1470 1470 1471 1471 1472
1477 1476 1474 1472 1470 1468 1466 1466 1466 1466 1465 1465 1464 1465 1464 1463 1462 1462 1461 1460 1460 1459 1459 1458 1458 1457 1457 1457 1458 1459 1460 1460 1461 1462 1463 1464 1464 1465 1465 1466 1467 1468 1468
1474 1472 1470 1468 1465 1463 1462 1462 1461 1461 1461 1461 1461 1461 1459 1459 1458 1457 1456 1456 1455 1454 1454 1452 1452 1452 1452 1452 1453 1454 1455 1455 1456 1457 1458 1459 1460 1460 1461 1462 1463 1464 1464
1471 1469 1466 1464 1462 1460 1459 1458 1457 1457 1457 1457 1456 1456 1455 1454 1453 1452 1451 1451 1450 1449 1448 1447 1447 1447 1447 1448 1448 1449 1450 1451 1452 1453 1454 1455 1456 1456 1457 1458 1459 1460 1460
1467 1465 1463 1461 1459 1458 1456 1455 1454 1453 1452 1451 1451 1451 1450 1449 1448 1447 1447 1446 1445 1444 1443 1442 1442 1442 1443 1443 1444 1445 1446 1447 1447 1448 1449 1450 1451 1452 1453 1454 1455 1455 1456
1463 1462 1460 1458 1456 1454 1453 1452 1451 1450 1449 1448 1447 1446 1445 1444 1444 1443 1442 1441 1440 1439 1438 1438 1437 1438 1438 1438 1439 1440 1441 1442 1443 1444 1445 1446 1446 1447 1448 1449 1450 1451 1452
1460 1458 1456 1455 1453 1451 1450 1448 1448 1447 1446 1445 1444 1442 1441 1440 1439 1438 1438 1437 1435 1434 1433 1433 1432 1432 1433 1434 1434 1435 1436 1437 1438 1439 1440 1441 1442 1442 1443 1444 1446 1446 1447
1456 1454 1453 1451 1450 1448 1447 1446 1445 1444 1443 1441 1440 1439 1438 1437 1435 1434 1433 1432 1431 1430 1429 1428 1428 1428 1428 1429 1430 1431 1432 1433 1434 1435 1436 1436 1437 1438 1439 1440 1441 1442 1443
1453 1451 1449 1448 1446 1445 1443 1442 1442 1441 1440 1438 1437 1436 1435 1433 1432 1431 1430 1428 1427 1427 1426 1425 1424 1424 1424 1425 1426 1427 1428 1428 1429 1430 1431 1431 1432 1433 1434 1436 1437 1438 1439
1450 1448 1446 1445 1444 1442 1441 1440 1439 1438 1437 1435 1434 1433 1432 1430 1429 1428 1427 1425 1424 1423 1422 1422 1421 1421 1421 1421 1422 1423 1424 1424 1425 1426 1426 1427 1428 1429 1430 1431 1433 1434 1435
1447 1445 1444 1442 1440 1439 1438 1437 1436 1435 1434 1433 1431 1430 1429 1427 1426 1425 1424 1423 1422 1420 1419 1418 1418 1418 1418 1417 1418 1419 1420 1420 1421 1422 1422 1423 1424 1425 1426 1427 1429 1430 1431
1444 1443 1441 1439 1438 1436 1435 1434 1433 1432 1431 1430 1428 1427 1426 1425 1423 1422 1421 1420 1419 1417 1416 1416 1415 1415 1414 1414 1414 1415 1415 1416 1417 1417 1418 1419 1420 1421 1422 1423 1424 1426 1427
1441 1440 1438 1436 1435 1434 1432 1431 1430 1429 1427 1426 1425 1424 1423 1421 1420 1419 1418 1417 1416 1415 1413 1412 1412 1412 1411 1411 1411 1411 1412 1412 1413 1413 1414 1415 1416 1417 1418 1419 1420 1422 1423